User: anonymous
Location: West Cummington
(42.4920°N, 72.9680°W)
Time: 00:05:06
(UTC-04:00)
Language:

Cosmos 841 Rocket - Orbit

View from above orbital plane
View from above orbital plane
View from above satellite
View from above satellite

Ground track
Ground track

The orbit data is extracted from the following two-line orbital elements,

1 09023U 76069B   14263.80313343  .00000177  00000-0  65416-4 0  4944
2 09023 074.0435 142.6624 0017958 198.6722 161.3776 14.39191411   880
Epoch (UTC): 20 September 2014 19:16:30
Eccentricity: 0.0017958
inclination: 74.0435°
perigee height: 748 km
apogee height: 774 km
right ascension of ascending node: 142.6624°
argument of perigee: 198.6722°
revolutions per day: 14.39191411
mean anomaly at epoch: 161.3776°
orbit number at epoch: 88

The dashed part of the orbit path shows where the satellite is in the earth's shadow,  

DLR